• In Deutschland
  • Länderverzeichnis
  • Für 7 Tage
  • Wassertemperatur
  • Satellitenkarten
  • Wetterkarte
  • Widgets
  • user-avatar
    Anmelden

    Stündliche Wetter Bad Kötzting

    Heute, 17 Oktober, Dienstag

    Zeit Temperatur Niederschläge Wind Luftdruck Luftfeuchtigkeit
    00:00 +13°C° 0 mm 1 m/S 731 mmHg 81%
    01:00 +12°C° 0 mm 1 m/S 731 mmHg 81%
    02:00 +12°C° 0 mm 1 m/S 731 mmHg 81%
    03:00 +12°C° 0 mm 1 m/S 731 mmHg 81%
    04:00 +12°C° 0 mm 1 m/S 731 mmHg 80%
    05:00 +11°C° 0 mm 1 m/S 731 mmHg 80%
    06:00 +11°C° 0 mm 1 m/S 731 mmHg 80%
    07:00 +11°C° 0 mm 1 m/S 731 mmHg 80%
    08:00 +14°C° 0 mm 1 m/S 731 mmHg 73%
    09:00 +16°C° 0 mm 1 m/S 731 mmHg 66%
    10:00 +19°C° 0 mm 1 m/S 731 mmHg 60%
    11:00 +21°C° 0 mm 1 m/S 731 mmHg 57%
    12:00 +22°C° 0 mm 1 m/S 730 mmHg 53%
    13:00 +23°C° 0 mm 1 m/S 730 mmHg 50%
    14:00 +23°C° 0 mm 1 m/S 729 mmHg 55%
    15:00 +20°C° 0 mm 0 m/S 729 mmHg 59%
    16:00 +19°C° 0 mm 0 m/S 728 mmHg 64%
    17:00 +17°C° 0 mm 0 m/S 728 mmHg 70%
    18:00 +15°C° 0 mm 0 m/S 728 mmHg 76%
    19:00 +13°C° 0 mm 0 m/S 727 mmHg 81%
    20:00 +13°C° 0 mm 0 m/S 727 mmHg 82%
    21:00 +12°C° 0 mm 0 m/S 727 mmHg 83%
    22:00 +12°C° 0 mm 0 m/S 727 mmHg 84%
    23:00 +12°C° 0 mm 0 m/S 727 mmHg 85%

    Morgen, 18 Oktober, Mittwoch

    Zeit Temperatur Niederschläge Wind Luftdruck Luftfeuchtigkeit
    00:00 +11°C° 0 mm 0 m/S 726 mmHg 85%
    01:00 +11°C° 0 mm 0 m/S 726 mmHg 86%
    02:00 +11°C° 0 mm 0 m/S 726 mmHg 86%
    03:00 +10°C° 0 mm 0 m/S 726 mmHg 87%
    04:00 +10°C° 0 mm 0 m/S 725 mmHg 87%
    05:00 +10°C° 0 mm 0 m/S 725 mmHg 88%
    06:00 +10°C° 0 mm 0 m/S 725 mmHg 89%
    07:00 +10°C° 0 mm 0 m/S 725 mmHg 89%
    08:00 +12°C° 0 mm 0 m/S 725 mmHg 83%
    09:00 +14°C° 0 mm 0 m/S 725 mmHg 77%
    10:00 +18°C° 0 mm 1 m/S 725 mmHg 70%
    11:00 +19°C° 0 mm 1 m/S 725 mmHg 66%
    12:00 +20°C° 0 mm 1 m/S 725 mmHg 62%
    13:00 +21°C° 0 mm 1 m/S 725 mmHg 58%
    14:00 +21°C° 0 mm 1 m/S 724 mmHg 62%
    15:00 +20°C° 0 mm 1 m/S 724 mmHg 65%
    16:00 +18°C° 0 mm 0 m/S 724 mmHg 69%
    17:00 +16°C° 0 mm 0 m/S 724 mmHg 75%
    18:00 +14°C° 0 mm 0 m/S 724 mmHg 81%
    19:00 +12°C° 0 mm 0 m/S 724 mmHg 86%
    20:00 +12°C° 0 mm 0 m/S 724 mmHg 87%
    21:00 +11°C° 0 mm 0 m/S 724 mmHg 88%
    22:00 +11°C° 0 mm 0 m/S 724 mmHg 89%
    23:00 +11°C° 0 mm 0 m/S 724 mmHg 90%

    übermorgen, 19 Oktober, Donnerstag

    Zeit Temperatur Niederschläge Wind Luftdruck Luftfeuchtigkeit
    00:00 +10°C° 0 mm 0 m/S 724 mmHg 90%
    01:00 +10°C° 0 mm 0 m/S 724 mmHg 91%
    02:00 +10°C° 0 mm 0 m/S 724 mmHg 91%
    03:00 +9°C° 0 mm 0 m/S 724 mmHg 91%
    04:00 +9°C° 0 mm 0 m/S 724 mmHg 91%
    05:00 +9°C° 0 mm 0 m/S 724 mmHg 92%
    06:00 +9°C° 0 mm 0 m/S 724 mmHg 92%
    07:00 +10°C° 0 mm 1 m/S 724 mmHg 92%
    08:00 +12°C° 0 mm 1 m/S 724 mmHg 84%
    09:00 +14°C° 0 mm 1 m/S 724 mmHg 76%
    10:00 +16°C° 0 mm 1 m/S 724 mmHg 68%
    11:00 +19°C° 0 mm 1 m/S 724 mmHg 62%
    12:00 +20°C° 0 mm 1 m/S 724 mmHg 57%
    13:00 +21°C° 0 mm 1 m/S 724 mmHg 51%
    14:00 +20°C° 0 mm 1 m/S 724 mmHg 55%
    15:00 +20°C° 0 mm 1 m/S 723 mmHg 59%
    16:00 +19°C° 0 mm 1 m/S 723 mmHg 63%
    17:00 +16°C° 0 mm 1 m/S 723 mmHg 69%
    18:00 +14°C° 0 mm 1 m/S 723 mmHg 74%
    19:00 +12°C° 0 mm 1 m/S 723 mmHg 79%
    20:00 +12°C° 0 mm 1 m/S 723 mmHg 81%
    21:00 +12°C° 0 mm 1 m/S 723 mmHg 82%
    22:00 +11°C° 0 mm 1 m/S 724 mmHg 84%
    23:00 +11°C° 0 mm 1 m/S 723 mmHg 85%

    20 Oktober, Freitag

    Zeit Temperatur Niederschläge Wind Luftdruck Luftfeuchtigkeit
    00:00 +11°C° 0 mm 1 m/S 723 mmHg 86%
    01:00 +10°C° 0 mm 0 m/S 723 mmHg 87%
    02:00 +10°C° 0 mm 1 m/S 723 mmHg 87%
    03:00 +10°C° 0 mm 1 m/S 723 mmHg 88%
    04:00 +10°C° 0 mm 1 m/S 723 mmHg 88%
    05:00 +10°C° 0 mm 1 m/S 724 mmHg 89%
    06:00 +10°C° 0 mm 1 m/S 724 mmHg 90%
    07:00 +10°C° 0 mm 1 m/S 724 mmHg 91%
    08:00 +11°C° 0 mm 1 m/S 724 mmHg 85%
    09:00 +13°C° 0 mm 1 m/S 725 mmHg 80%
    10:00 +15°C° 0 mm 1 m/S 725 mmHg 74%
    11:00 +16°C° 0 mm 2 m/S 725 mmHg 72%
    12:00 +17°C° 0 mm 2 m/S 725 mmHg 69%
    13:00 +18°C° 0 mm 2 m/S 726 mmHg 66%
    14:00 +18°C° 0 mm 2 m/S 725 mmHg 68%
    15:00 +18°C° 0 mm 1 m/S 725 mmHg 70%
    16:00 +18°C° 0 mm 1 m/S 725 mmHg 73%
    17:00 +16°C° 0 mm 1 m/S 726 mmHg 79%
    18:00 +14°C° 0 mm 1 m/S 726 mmHg 84%
    19:00 +13°C° 0 mm 2 m/S 726 mmHg 90%
    20:00 +12°C° 0 mm 2 m/S 726 mmHg 91%
    21:00 +12°C° 0 mm 2 m/S 726 mmHg 91%
    22:00 +12°C° 0 mm 2 m/S 726 mmHg 92%
    23:00 +10°C° 0 mm 2 m/S 725 mmHg 92%

    21 Oktober, Samstag

    Zeit Temperatur Niederschläge Wind Luftdruck Luftfeuchtigkeit
    00:00 +11°C° 0 mm 1 m/S 725 mmHg 92%
    01:00 +11°C° 0 mm 1 m/S 725 mmHg 92%
    02:00 +11°C° 0 mm 1 m/S 725 mmHg 91%
    03:00 +10°C° 0 mm 1 m/S 724 mmHg 90%
    04:00 +10°C° 0 mm 1 m/S 724 mmHg 89%
    05:00 +10°C° 0 mm 1 m/S 724 mmHg 87%
    06:00 +10°C° 0 mm 1 m/S 724 mmHg 86%
    07:00 +10°C° 0 mm 1 m/S 724 mmHg 84%
    08:00 +12°C° 0 mm 2 m/S 724 mmHg 77%
    09:00 +14°C° 0 mm 2 m/S 724 mmHg 70%
    10:00 +16°C° 0 mm 2 m/S 724 mmHg 63%
    11:00 +17°C° 0 mm 2 m/S 723 mmHg 59%
    12:00 +18°C° 0 mm 3 m/S 723 mmHg 56%
    13:00 +20°C° 0 mm 3 m/S 723 mmHg 52%
    14:00 +19°C° 0 mm 3 m/S 723 mmHg 58%
    15:00 +18°C° 0 mm 2 m/S 723 mmHg 65%
    16:00 +17°C° 0 mm 2 m/S 722 mmHg 71%
    17:00 +16°C° 0 mm 2 m/S 723 mmHg 76%
    18:00 +15°C° 0 mm 2 m/S 723 mmHg 81%
    19:00 +13°C° 0 mm 3 m/S 724 mmHg 86%
    20:00 +14°C° 0,1 mm 2 m/S 724 mmHg 88%
    21:00 +13°C° 0,1 mm 2 m/S 724 mmHg 89%
    22:00 +13°C° 0,1 mm 2 m/S 724 mmHg 91%
    23:00 +12°C° 0,2 mm 2 m/S 724 mmHg 91%

    22 Oktober, Sonntag

    Zeit Temperatur Niederschläge Wind Luftdruck Luftfeuchtigkeit
    00:00 +12°C° 0,2 mm 2 m/S 724 mmHg 91%
    01:00 +11°C° 0,2 mm 3 m/S 724 mmHg 91%
    02:00 +10°C° 0,4 mm 3 m/S 724 mmHg 91%
    03:00 +10°C° 0,4 mm 2 m/S 724 mmHg 92%
    04:00 +10°C° 0,4 mm 2 m/S 724 mmHg 92%
    05:00 +9°C° 0,7 mm 2 m/S 724 mmHg 93%
    06:00 +9°C° 0,7 mm 2 m/S 724 mmHg 93%
    07:00 +8°C° 0,7 mm 2 m/S 724 mmHg 94%
    08:00 +9°C° 0,5 mm 2 m/S 724 mmHg 92%
    09:00 +9°C° 0,5 mm 2 m/S 724 mmHg 89%
    10:00 +9°C° 0,5 mm 2 m/S 724 mmHg 87%
    11:00 +9°C° 0,2 mm 3 m/S 724 mmHg 84%
    12:00 +10°C° 0,2 mm 3 m/S 724 mmHg 82%
    13:00 +10°C° 0,2 mm 3 m/S 724 mmHg 79%
    14:00 +10°C° 0 mm 3 m/S 724 mmHg 79%
    15:00 +9°C° 0 mm 3 m/S 724 mmHg 79%
    16:00 +9°C° 0 mm 3 m/S 723 mmHg 79%
    17:00 +8°C° 0 mm 3 m/S 724 mmHg 80%
    18:00 +8°C° 0 mm 3 m/S 724 mmHg 82%
    19:00 +7°C° 0 mm 3 m/S 724 mmHg 84%
    20:00 +6°C° 0 mm 4 m/S 724 mmHg 84%
    21:00 +6°C° 0 mm 4 m/S 724 mmHg 83%
    22:00 +5°C° 0 mm 4 m/S 724 mmHg 83%
    23:00 +5°C° 0,1 mm 5 m/S 724 mmHg 83%
    Mehr zeigen